• In Moldova, Republic
  • List of Countries
  • For 7 days
  • Water Temperature
  • Satellite Maps
  • Weather Map
  • Weather Widgets
  • user-avatar
    Login

    Hourly Weather Tuzla

    Today, 18 March, Monday

    Time Temperature Precipitation Wind Pressure Humidity
    00:00 +9°C° 0 mm 2 mps 719 mmHg 82%
    01:00 +8°C° 0 mm 1 mps 718 mmHg 88%
    02:00 +8°C° 0 mm 1 mps 719 mmHg 88%
    03:00 +7°C° 0 mm 1 mps 719 mmHg 88%
    04:00 +7°C° 0 mm 1 mps 719 mmHg 87%
    05:00 +7°C° 0 mm 1 mps 719 mmHg 85%
    06:00 +8°C° 0 mm 1 mps 719 mmHg 84%
    07:00 +9°C° 0 mm 1 mps 719 mmHg 82%
    08:00 +11°C° 0 mm 1 mps 720 mmHg 74%
    09:00 +13°C° 0 mm 1 mps 720 mmHg 67%
    10:00 +15°C° 0 mm 2 mps 720 mmHg 59%
    11:00 +15°C° 0 mm 2 mps 720 mmHg 58%
    12:00 +16°C° 0 mm 2 mps 720 mmHg 57%
    13:00 +16°C° 0 mm 2 mps 720 mmHg 56%
    14:00 +15°C° 0.1 mm 2 mps 720 mmHg 61%
    15:00 +14°C° 0.1 mm 2 mps 720 mmHg 66%
    16:00 +12°C° 0.1 mm 2 mps 720 mmHg 70%
    17:00 +10°C° 0.1 mm 2 mps 721 mmHg 76%
    18:00 +8°C° 0.1 mm 2 mps 721 mmHg 81%
    19:00 +5°C° 0.1 mm 3 mps 721 mmHg 86%
    20:00 +4°C° 0.2 mm 3 mps 722 mmHg 87%
    21:00 +5°C° 0.2 mm 2 mps 722 mmHg 88%
    22:00 +4°C° 0.2 mm 2 mps 723 mmHg 89%
    23:00 +4°C° 0.1 mm 2 mps 723 mmHg 89%

    Tomorrow, 19 March, Tuesday

    Time Temperature Precipitation Wind Pressure Humidity
    00:00 +5°C° 0.1 mm 1 mps 723 mmHg 88%
    01:00 +5°C° 0.1 mm 1 mps 723 mmHg 88%
    02:00 +5°C° 0 mm 1 mps 723 mmHg 88%
    03:00 +5°C° 0 mm 1 mps 723 mmHg 88%
    04:00 +5°C° 0 mm 1 mps 723 mmHg 88%
    05:00 +5°C° 0.1 mm 1 mps 723 mmHg 88%
    06:00 +5°C° 0.1 mm 1 mps 723 mmHg 87%
    07:00 +5°C° 0.1 mm 1 mps 724 mmHg 86%
    08:00 +5°C° 0.2 mm 1 mps 724 mmHg 83%
    09:00 +6°C° 0.2 mm 1 mps 724 mmHg 79%
    10:00 +6°C° 0.2 mm 2 mps 724 mmHg 76%
    11:00 +6°C° 0.2 mm 2 mps 724 mmHg 75%
    12:00 +6°C° 0.2 mm 2 mps 725 mmHg 74%
    13:00 +7°C° 0.2 mm 2 mps 725 mmHg 73%
    14:00 +7°C° 0.2 mm 2 mps 725 mmHg 73%
    15:00 +7°C° 0.2 mm 2 mps 725 mmHg 73%
    16:00 +6°C° 0.2 mm 2 mps 725 mmHg 74%
    17:00 +6°C° 0 mm 2 mps 725 mmHg 76%
    18:00 +6°C° 0 mm 1 mps 726 mmHg 79%
    19:00 +6°C° 0 mm 1 mps 726 mmHg 81%
    20:00 +6°C° 0.1 mm 1 mps 727 mmHg 82%
    21:00 +5°C° 0.1 mm 1 mps 727 mmHg 84%
    22:00 +5°C° 0.1 mm 1 mps 728 mmHg 85%
    23:00 +5°C° 0.3 mm 1 mps 728 mmHg 86%

    Day after tomorrow, 20 March, Wednesday

    Time Temperature Precipitation Wind Pressure Humidity
    00:00 +5°C° 0.3 mm 1 mps 728 mmHg 87%
    01:00 +5°C° 0.3 mm 1 mps 728 mmHg 88%
    02:00 +5°C° 0 mm 1 mps 729 mmHg 89%
    03:00 +4°C° 0 mm 1 mps 729 mmHg 89%
    04:00 +4°C° 0 mm 1 mps 729 mmHg 89%
    05:00 +4°C° 0 mm 1 mps 729 mmHg 88%
    06:00 +5°C° 0 mm 1 mps 729 mmHg 87%
    07:00 +5°C° 0 mm 1 mps 730 mmHg 86%
    08:00 +6°C° 0 mm 1 mps 730 mmHg 79%
    09:00 +8°C° 0 mm 1 mps 731 mmHg 71%
    10:00 +8°C° 0 mm 2 mps 731 mmHg 63%
    11:00 +8°C° 0 mm 2 mps 731 mmHg 62%
    12:00 +9°C° 0 mm 2 mps 731 mmHg 62%
    13:00 +9°C° 0 mm 2 mps 731 mmHg 61%
    14:00 +9°C° 0 mm 2 mps 731 mmHg 62%
    15:00 +9°C° 0 mm 2 mps 731 mmHg 62%
    16:00 +9°C° 0 mm 2 mps 730 mmHg 62%
    17:00 +8°C° 0 mm 2 mps 731 mmHg 65%
    18:00 +8°C° 0 mm 1 mps 731 mmHg 68%
    19:00 +7°C° 0 mm 1 mps 731 mmHg 71%
    20:00 +7°C° 0 mm 1 mps 732 mmHg 72%
    21:00 +6°C° 0 mm 1 mps 732 mmHg 73%
    22:00 +5°C° 0 mm 1 mps 732 mmHg 74%
    23:00 +5°C° 0 mm 1 mps 732 mmHg 74%

    21 March, Thursday

    Time Temperature Precipitation Wind Pressure Humidity
    00:00 +4°C° 0 mm 1 mps 732 mmHg 75%
    01:00 +3°C° 0 mm 0 mps 732 mmHg 75%
    02:00 +2°C° 0 mm 0 mps 732 mmHg 75%
    03:00 +2°C° 0 mm 0 mps 732 mmHg 75%
    04:00 +2°C° 0 mm 0 mps 732 mmHg 75%
    05:00 +2°C° 0 mm 0 mps 732 mmHg 73%
    06:00 +3°C° 0 mm 0 mps 733 mmHg 71%
    07:00 +3°C° 0 mm 0 mps 733 mmHg 70%
    08:00 +6°C° 0 mm 1 mps 733 mmHg 63%
    09:00 +8°C° 0 mm 1 mps 733 mmHg 56%
    10:00 +9°C° 0 mm 2 mps 733 mmHg 49%
    11:00 +9°C° 0 mm 2 mps 733 mmHg 48%
    12:00 +10°C° 0 mm 2 mps 732 mmHg 47%
    13:00 +11°C° 0 mm 3 mps 732 mmHg 45%
    14:00 +11°C° 0 mm 3 mps 732 mmHg 46%
    15:00 +12°C° 0 mm 2 mps 731 mmHg 47%
    16:00 +10°C° 0 mm 2 mps 731 mmHg 47%
    17:00 +9°C° 0 mm 2 mps 731 mmHg 53%
    18:00 +8°C° 0 mm 1 mps 731 mmHg 58%
    19:00 +6°C° 0 mm 1 mps 731 mmHg 64%
    20:00 +6°C° 0 mm 1 mps 731 mmHg 64%
    21:00 +4°C° 0 mm 0 mps 731 mmHg 65%
    22:00 +4°C° 0 mm 0 mps 731 mmHg 65%
    23:00 +3°C° 0 mm 0 mps 731 mmHg 66%

    22 March, Friday

    Time Temperature Precipitation Wind Pressure Humidity
    00:00 +3°C° 0 mm 0 mps 731 mmHg 66%
    01:00 +3°C° 0 mm 0 mps 731 mmHg 67%
    02:00 +3°C° 0 mm 0 mps 731 mmHg 67%
    03:00 +2°C° 0 mm 0 mps 731 mmHg 68%
    04:00 +2°C° 0 mm 0 mps 731 mmHg 68%
    05:00 +3°C° 0 mm 0 mps 731 mmHg 67%
    06:00 +4°C° 0 mm 0 mps 731 mmHg 65%
    07:00 +5°C° 0 mm 1 mps 731 mmHg 63%
    08:00 +8°C° 0 mm 1 mps 732 mmHg 56%
    09:00 +10°C° 0 mm 1 mps 732 mmHg 48%
    10:00 +13°C° 0 mm 1 mps 732 mmHg 41%
    11:00 +13°C° 0 mm 1 mps 731 mmHg 40%
    12:00 +14°C° 0 mm 2 mps 731 mmHg 38%
    13:00 +15°C° 0 mm 2 mps 731 mmHg 37%
    14:00 +15°C° 0 mm 2 mps 730 mmHg 39%
    15:00 +15°C° 0 mm 2 mps 730 mmHg 41%
    16:00 +14°C° 0 mm 2 mps 730 mmHg 43%
    17:00 +12°C° 0 mm 1 mps 730 mmHg 49%
    18:00 +10°C° 0 mm 1 mps 730 mmHg 55%
    19:00 +7°C° 0 mm 0 mps 730 mmHg 62%
    20:00 +7°C° 0 mm 0 mps 730 mmHg 63%
    21:00 +6°C° 0 mm 0 mps 730 mmHg 64%
    22:00 +6°C° 0 mm 0 mps 730 mmHg 64%
    23:00 +6°C° 0 mm 0 mps 730 mmHg 65%

    23 March, Saturday

    Time Temperature Precipitation Wind Pressure Humidity
    00:00 +5°C° 0 mm 0 mps 730 mmHg 66%
    01:00 +5°C° 0 mm 0 mps 730 mmHg 67%
    02:00 +5°C° 0 mm 0 mps 730 mmHg 67%
    03:00 +5°C° 0 mm 0 mps 730 mmHg 68%
    04:00 +4°C° 0 mm 0 mps 730 mmHg 68%
    05:00 +5°C° 0 mm 0 mps 730 mmHg 67%
    06:00 +6°C° 0 mm 0 mps 731 mmHg 66%
    07:00 +6°C° 0 mm 0 mps 731 mmHg 64%
    08:00 +9°C° 0 mm 0 mps 731 mmHg 59%
    09:00 +13°C° 0 mm 1 mps 731 mmHg 53%
    10:00 +15°C° 0 mm 1 mps 731 mmHg 48%
    11:00 +16°C° 0 mm 1 mps 731 mmHg 46%
    12:00 +18°C° 0 mm 1 mps 730 mmHg 45%
    13:00 +18°C° 0 mm 2 mps 730 mmHg 43%
    14:00 +17°C° 0 mm 2 mps 730 mmHg 46%
    15:00 +17°C° 0 mm 2 mps 729 mmHg 48%
    16:00 +17°C° 0 mm 2 mps 729 mmHg 50%
    17:00 +15°C° 0 mm 2 mps 729 mmHg 58%
    18:00 +13°C° 0 mm 1 mps 729 mmHg 65%
    19:00 +11°C° 0 mm 1 mps 729 mmHg 72%
    20:00 +10°C° 0 mm 1 mps 729 mmHg 74%
    21:00 +10°C° 0 mm 1 mps 730 mmHg 76%
    22:00 +10°C° 0 mm 1 mps 730 mmHg 77%
    23:00 +9°C° 0 mm 1 mps 730 mmHg 79%
    Show more